[[{"header":{"parameterUnit":"m.s-1","parameterCategory":1,"la1":30.2991,"la2":30.254,"lo1":-89.0895,"lo2":-89.0444,"dy":0.0017,"dx":0.0017,"nx":28,"ny":28,"refTime":"2025-03-03T03:00:00:Z","depth":0,"parameterNumber":2,"parameterNumberName":"U-component_of_WINDS"},"data":[0,0,0,0,0,0,0,0,0,0,0,0,0,0,0,0,0,0,0,0,0,0,0,0,0,0,0,0,0,0,0,0,0,0,0,0,0,0,0,0,0,0,0,0,0,0,0,0,0,0,0,0,0,0,0,0,0,0,-0.5155,-0.5154,0,-0.5024,-0.5022,-0.5021,-0.4972,-0.4972,-0.4972,-0.4973,-0.4838,-0.4834,-0.483,0,0,0,0,0,0,0,0,0,0,0,0,0,-0.5363,-0.536,-0.5155,-0.5153,-0.5152,-0.5024,-0.5022,-0.502,-0.4971,-0.4972,-0.4972,-0.4973,-0.4839,-0.4834,-0.4829,0,0,0,0,0,0,0,0,0,0,0,0,0,-0.5257,-0.5359,-0.5155,-0.5112,-0.5107,-0.5024,-0.5022,-0.502,-0.4971,-0.4972,-0.4973,-0.4973,-0.484,-0.4835,-0.4829,-0.478,0,0,-0.4811,-0.4808,0,0,0,0,0,0,0,0,-0.5263,-0.5249,-0.512,-0.5115,-0.5109,-0.5015,-0.5046,-0.4939,-0.4971,-0.5023,-0.4973,-0.4973,-0.4896,-0.4886,-0.4859,-0.4773,-0.4768,-0.481,-0.4806,-0.4804,-0.4802,0,0,0,0,0,0,0,-0.527,-0.5255,-0.5103,-0.5118,-0.5111,-0.5099,-0.5085,-0.5026,-0.4958,-0.5018,-0.5014,-0.5,-0.4893,-0.4865,-0.4856,-0.4766,-0.481,-0.4805,-0.4801,-0.4799,-0.4634,-0.4634,0,0,0,0,0,0,-0.5285,-0.5261,-0.5107,-0.5099,-0.5189,-0.5095,-0.5079,-0.5044,-0.4958,-0.4945,-0.4999,-0.4998,-0.4875,-0.4863,-0.4851,-0.4789,-0.4804,-0.4798,-0.4795,-0.4635,-0.4634,-0.4633,0,0,0,0,0,0,-0.529,-0.5272,-0.5113,-0.5179,-0.5158,-0.5091,-0.5052,-0.5041,-0.5014,-0.4944,-0.4931,-0.4983,-0.4875,-0.4859,-0.4798,-0.4783,-0.4796,-0.479,-0.4636,-0.4635,-0.4634,-0.4663,0,0,0,0,0,0,-0.5296,-0.5274,-0.5254,-0.5179,-0.5154,-0.5062,-0.5051,-0.5038,-0.5004,-0.5,-0.4926,-0.4914,-0.4875,-0.4807,-0.4792,-0.4775,-0.4786,-0.4637,-0.4636,-0.4634,-0.4663,-0.4663,-0.4663,0,0,0,0,0,-0.5303,-0.5267,-0.5253,-0.5235,-0.5129,-0.5061,-0.5047,-0.5003,-0.5003,-0.4982,-0.4938,-0.4916,-0.4788,-0.4802,-0.4784,-0.4765,-0.4638,-0.4636,-0.4634,-0.4664,-0.4663,-0.4663,0,0,0,0,0,0,-0.5341,-0.5256,-0.524,-0.5178,-0.5128,-0.5053,-0.5026,-0.5004,-0.4952,-0.4951,-0.4898,-0.4882,-0.4825,-0.4789,-0.4806,-0.4714,-0.4711,-0.4706,-0.474,-0.4739,-0.4739,-0.4749,-0.4781,0,0,0,0,0,-0.5343,-0.5295,-0.5223,-0.5176,-0.5151,-0.5093,-0.5062,-0.5033,-0.4978,-0.4956,-0.4907,-0.4854,-0.4802,-0.4768,-0.4716,-0.4658,-0.4642,-0.4637,-0.4637,-0.4637,-0.4633,-0.4601,-0.4598,-0.4628,-0.4628,-0.4628,0,0,-0.5345,-0.5292,-0.5265,-0.5182,-0.5139,-0.5091,-0.5075,-0.5025,-0.4989,-0.4948,-0.4887,-0.485,-0.4788,-0.4728,-0.47,-0.4696,-0.4622,-0.4635,-0.4636,-0.4631,-0.4599,-0.4596,-0.4594,-0.4626,-0.4627,-0.4627,0,0,-0.5324,-0.5279,-0.5235,-0.5193,-0.5129,-0.5091,-0.5081,-0.5009,-0.4983,-0.4922,-0.489,-0.4847,-0.4758,-0.4715,-0.4682,-0.4648,-0.4626,-0.4632,-0.4632,-0.4601,-0.4599,-0.4597,-0.4585,-0.4581,-0.4629,-0.4629,-0.4629,0,-0.5334,-0.5261,-0.5215,-0.5167,-0.5132,-0.5094,-0.5049,-0.501,-0.4932,-0.4909,-0.4907,-0.4796,-0.4751,-0.4682,-0.4674,-0.4648,-0.4635,-0.464,-0.4603,-0.46,-0.4597,-0.4586,-0.4581,-0.463,-0.463,-0.463,-0.463,0,-0.5277,-0.5227,-0.5199,-0.5125,-0.5087,-0.5041,-0.4989,-0.4956,-0.4931,-0.4894,-0.4832,-0.4778,-0.4715,-0.4696,-0.4671,-0.4624,-0.4624,-0.4613,-0.4609,-0.4597,-0.4585,-0.458,-0.4632,-0.4631,-0.4631,-0.4631,0,0,-0.5274,-0.5178,-0.5169,-0.5136,-0.5063,-0.5023,-0.4976,-0.4915,-0.4888,-0.4836,-0.4795,-0.4722,-0.4712,-0.4674,-0.4644,-0.4617,-0.4594,-0.4609,-0.4607,-0.4609,-0.454,-0.4549,-0.4545,-0.458,-0.4579,-0.4578,-0.4546,0,-0.5244,-0.5158,-0.5117,-0.5049,-0.5002,-0.4967,-0.4926,-0.4877,-0.4841,-0.4797,-0.4758,-0.4707,-0.4697,-0.4674,-0.4646,-0.4603,-0.458,-0.4605,-0.4542,-0.454,-0.4558,-0.4538,-0.4547,-0.4519,-0.4541,-0.454,-0.4539,0,-0.5196,-0.5146,-0.5073,-0.5008,-0.4986,-0.495,-0.4892,-0.485,-0.4795,-0.4771,-0.473,-0.4701,-0.4651,-0.4651,-0.4582,-0.46,-0.4572,-0.4547,-0.4545,-0.4537,-0.4539,-0.453,-0.4509,-0.4505,-0.4532,-0.4532,-0.4533,0,-0.5202,-0.5116,-0.5062,-0.5035,-0.4956,-0.4932,-0.4898,-0.4843,-0.481,-0.4759,-0.4737,-0.4681,-0.4651,-0.4608,-0.4565,-0.457,-0.45,-0.4497,-0.4479,-0.448,-0.4465,-0.4467,-0.444,-0.4448,-0.4448,-0.4448,-0.4448,0,-0.5172,-0.513,-0.5064,-0.503,-0.4982,-0.4936,-0.4889,-0.4853,-0.4805,-0.4764,-0.473,-0.4693,-0.4638,-0.4594,-0.456,-0.4509,-0.4495,-0.4474,-0.4466,-0.4477,-0.448,-0.4458,-0.4459,-0.4447,-0.4447,-0.4448,-0.4448,0,-0.517,-0.5124,-0.5063,-0.4995,-0.4977,-0.4944,-0.4886,-0.4852,-0.4816,-0.4765,-0.4751,-0.4693,-0.464,-0.4593,-0.4523,-0.45,-0.4447,-0.4436,-0.4466,-0.4461,-0.4446,-0.4448,-0.4403,-0.4395,-0.441,-0.441,-0.441,0,-0.5154,-0.5121,-0.5049,-0.502,-0.4987,-0.494,-0.4906,-0.486,-0.4826,-0.4762,-0.4737,-0.4681,-0.4634,-0.4551,-0.4503,-0.4449,-0.4437,-0.4425,-0.4429,-0.4442,-0.4437,-0.444,-0.4437,-0.4425,-0.4425,-0.4425,-0.4425,0,-0.513,-0.511,-0.5062,-0.5008,-0.4968,-0.4923,-0.4876,-0.4854,-0.48,-0.4764,-0.4709,-0.4673,-0.4602,-0.4547,-0.4489,-0.4454,-0.4431,-0.4425,-0.4418,-0.4429,-0.4448,-0.4438,-0.4466,-0.4426,-0.4426,-0.4426,-0.4426,-0.4426,-0.5121,-0.509,-0.5035,-0.4984,-0.4945,-0.4902,-0.4868,-0.4828,-0.4782,-0.472,-0.4696,-0.4641,-0.4588,-0.4507,-0.4473,-0.4429,-0.4425,-0.4415,-0.4413,-0.4411,-0.4413,-0.4455,-0.4419,-0.4419,-0.4418,-0.4418,-0.4418,0,-0.5095,-0.5059,-0.5012,-0.4949,-0.4909,-0.4892,-0.484,-0.4808,-0.476,-0.4712,-0.4667,-0.4606,-0.4553,-0.4502,-0.4447,-0.4422,-0.441,-0.441,-0.4411,-0.4403,-0.442,-0.4431,-0.442,-0.442,-0.442,-0.442,-0.442,-0.442,-0.5077,-0.5025,-0.4998,-0.4926,-0.4889,-0.4835,-0.4807,-0.4769,-0.4731,-0.4664,-0.462,-0.4588,-0.4539,-0.4481,-0.4432,-0.4419,-0.44,-0.4402,-0.4386,-0.4402,-0.4402,-0.4402,-0.4413,-0.4398,-0.4398,-0.4373,-0.4373,-0.4373]},{"header":{"parameterUnit":"m.s-1","parameterCategory":1,"la1":30.2991,"la2":30.254,"lo1":-89.0895,"lo2":-89.0444,"dy":0.0017,"dx":0.0017,"nx":28,"ny":28,"refTime":"2025-03-03T03:00:00:Z","depth":0,"parameterNumber":3,"parameterNumberName":"V-component_of_WINDS"},"data":[0,0,0,0,0,0,0,0,0,0,0,0,0,0,0,0,0,0,0,0,0,0,0,0,0,0,0,0,0,0,0,0,0,0,0,0,0,0,0,0,0,0,0,0,0,0,0,0,0,0,0,0,0,0,0,0,0,0,-0.0063,-0.0063,0,-0.0092,-0.0093,-0.0093,-0.0165,-0.0166,-0.0167,-0.0169,-0.02,-0.0199,-0.0199,0,0,0,0,0,0,0,0,0,0,0,0,0,-0.007,-0.007,-0.0063,-0.0063,-0.0064,-0.0092,-0.0093,-0.0093,-0.0164,-0.0166,-0.0168,-0.017,-0.02,-0.0199,-0.0199,0,0,0,0,0,0,0,0,0,0,0,0,0,-0.008,-0.0069,-0.0063,-0.0102,-0.0106,-0.0092,-0.0093,-0.0093,-0.0164,-0.0166,-0.0168,-0.017,-0.02,-0.0199,-0.0198,-0.0148,0,0,-0.0196,-0.0195,0,0,0,0,0,0,0,0,-0.0079,-0.008,-0.0096,-0.01,-0.0104,-0.0127,-0.0107,-0.0112,-0.0163,-0.0142,-0.0169,-0.0172,-0.0174,-0.0175,-0.0176,-0.015,-0.0151,-0.0196,-0.0195,-0.0195,-0.0195,0,0,0,0,0,0,0,-0.0079,-0.0079,-0.0075,-0.0096,-0.0101,-0.012,-0.0123,-0.0108,-0.0145,-0.0144,-0.0149,-0.0152,-0.0176,-0.0177,-0.0177,-0.0152,-0.0196,-0.0195,-0.0195,-0.0194,-0.0091,-0.0089,0,0,0,0,0,0,-0.0072,-0.0078,-0.0074,-0.0075,-0.0097,-0.0118,-0.0122,-0.0117,-0.0145,-0.0152,-0.015,-0.0155,-0.0177,-0.0178,-0.0178,-0.0125,-0.0195,-0.0194,-0.0194,-0.0093,-0.009,-0.0088,0,0,0,0,0,0,-0.0072,-0.0071,-0.0072,-0.0078,-0.008,-0.0115,-0.0109,-0.0117,-0.0117,-0.015,-0.0157,-0.0143,-0.0179,-0.018,-0.0156,-0.0127,-0.0194,-0.0193,-0.0096,-0.0092,-0.0089,-0.0016,0,0,0,0,0,0,-0.0072,-0.007,-0.0051,-0.0077,-0.0079,-0.0049,-0.0108,-0.0116,-0.0115,-0.0122,-0.0145,-0.0151,-0.0181,-0.0157,-0.0156,-0.0127,-0.0192,-0.0099,-0.0094,-0.009,-0.0022,-0.0011,-0.0002,0,0,0,0,0,-0.0072,-0.0028,-0.005,-0.0049,-0.0056,-0.0047,-0.0048,-0.0083,-0.0113,-0.0095,-0.0116,-0.0151,-0.013,-0.0154,-0.0153,-0.0124,-0.0101,-0.0095,-0.0091,-0.0026,-0.0013,-0.0002,0,0,0,0,0,0,0.0003,-0.0033,-0.0056,-0.002,-0.003,-0.0059,-0.0037,-0.0067,-0.0069,-0.0075,-0.0118,-0.0122,-0.0094,-0.0106,-0.0133,-0.0079,-0.0121,-0.0116,-0.0073,-0.0061,-0.0051,-0.005,-0.0192,0,0,0,0,0,0.0023,0.0034,0.0002,0.0037,0.0033,-0.0001,0.0002,-0.0024,-0.0036,-0.0041,-0.006,-0.0071,-0.0068,-0.0064,-0.0063,-0.0023,-0.0031,-0.0003,0.0007,0.0015,0.002,0.0036,0.0047,-0.0071,-0.0072,-0.0072,0,0,0.0066,0.0048,0.0057,0.0052,0.0041,0.0051,-0.0004,0.0011,0.0017,-0.0038,-0.0019,-0.0033,-0.0049,-0.0018,-0.0005,-0.0027,0.0051,0.0022,0.0029,0.0028,0.0042,0.0053,0.0063,-0.0068,-0.0069,-0.0069,0,0,0.0148,0.0137,0.0163,0.0152,0.0136,0.0113,0.012,0.0095,0.0082,0.0102,0.0059,0.0066,0.0074,0.0064,0.006,0.0135,0.0102,0.0137,0.0188,0.0204,0.0213,0.0221,0.0245,0.0254,0.0143,0.0143,0.0143,0,0.0202,0.0217,0.018,0.0195,0.0193,0.0143,0.0167,0.0159,0.0145,0.0144,0.012,0.0126,0.0113,0.0138,0.0156,0.0156,0.016,0.0139,0.0215,0.0223,0.0229,0.0251,0.0261,0.0147,0.0146,0.0146,0.0146,0,0.0283,0.0293,0.0316,0.0302,0.0302,0.0323,0.0287,0.0292,0.0266,0.0245,0.0263,0.0245,0.0241,0.0245,0.0221,0.0266,0.0253,0.0223,0.0179,0.0245,0.0265,0.0273,0.0153,0.0151,0.015,0.0149,0,0,0.041,0.0374,0.0383,0.0374,0.0352,0.0359,0.0376,0.0371,0.0374,0.0366,0.0377,0.0384,0.0354,0.035,0.0324,0.0338,0.0394,0.0306,0.0304,0.032,0.0439,0.046,0.047,0.0373,0.0375,0.0376,0.0439,0,0.0484,0.0511,0.0477,0.0511,0.0518,0.047,0.0484,0.0471,0.0451,0.0454,0.0432,0.0436,0.04,0.0396,0.0408,0.0385,0.0417,0.038,0.038,0.0381,0.0383,0.0481,0.0503,0.0564,0.0447,0.0448,0.0449,0,0.0574,0.0568,0.0602,0.0575,0.0576,0.059,0.0581,0.0585,0.0568,0.0553,0.0546,0.0514,0.0527,0.0487,0.0502,0.0478,0.0476,0.0464,0.0466,0.0462,0.0417,0.0477,0.0583,0.0591,0.0462,0.0461,0.046,0,0.0659,0.066,0.0679,0.0674,0.0644,0.0654,0.0641,0.0623,0.0621,0.0613,0.0611,0.0605,0.0601,0.0597,0.0563,0.0537,0.0581,0.0539,0.0566,0.0567,0.0575,0.0575,0.068,0.058,0.058,0.058,0.058,0,0.0743,0.0765,0.0716,0.0728,0.075,0.0711,0.0734,0.0716,0.07,0.0706,0.0665,0.0671,0.0628,0.0629,0.0603,0.0618,0.0617,0.0603,0.0595,0.0605,0.0606,0.0601,0.0595,0.0582,0.0582,0.0581,0.0581,0,0.0841,0.081,0.0827,0.0796,0.0789,0.0806,0.0779,0.0787,0.0765,0.0773,0.0772,0.0737,0.0736,0.0702,0.0695,0.0677,0.0701,0.0687,0.0706,0.07,0.0728,0.0725,0.0831,0.0841,0.0739,0.074,0.074,0,0.0895,0.091,0.0881,0.0881,0.0871,0.0874,0.0871,0.0832,0.0831,0.0812,0.0822,0.0818,0.0812,0.0812,0.0785,0.0778,0.0761,0.0799,0.076,0.0768,0.0758,0.0756,0.0755,0.0806,0.0808,0.0809,0.081,0,0.0993,0.0977,0.0974,0.0966,0.0964,0.0956,0.0945,0.0948,0.0905,0.0906,0.0904,0.0899,0.089,0.0885,0.0873,0.0859,0.0826,0.0822,0.0828,0.0836,0.0845,0.0837,0.0725,0.082,0.0819,0.0818,0.0817,0.0817,0.1068,0.1078,0.1058,0.1056,0.1043,0.1034,0.1039,0.1016,0.1014,0.1003,0.0981,0.0982,0.0962,0.0942,0.0931,0.093,0.091,0.0919,0.0921,0.0923,0.0926,0.0848,0.0928,0.0928,0.0927,0.0927,0.0927,0,0.1161,0.1145,0.1144,0.1129,0.1127,0.1097,0.1083,0.1083,0.1084,0.1069,0.1063,0.1059,0.1054,0.1025,0.1016,0.1021,0.1005,0.1019,0.1017,0.1013,0.0946,0.0941,0.1031,0.1031,0.1031,0.1031,0.1031,0.1031,0.1209,0.1223,0.1203,0.121,0.1193,0.1194,0.1187,0.1177,0.1164,0.1162,0.1157,0.1138,0.1117,0.1105,0.1098,0.109,0.1087,0.1105,0.1091,0.1029,0.1018,0.1009,0.1003,0.1106,0.1106,0.1158,0.1158,0.1159]}]]